User: anonymous   Login
Location: Mascot Post Office (historical)
(40.2645°N, 99.5462°W)
Time: 19:46:00
(UTC+00:00)
Language:

SL-08 R/B - Orbit

View from above orbital plane
View from above orbital plane
View from above satellite
View from above satellite

Ground track
Ground track

The orbit data is extracted from the following two-line orbital elements,

1 27561U 02054C   20263.47669627 +.00000019 +00000-0 +15226-4 0  9992
2 27561 098.4271 051.1643 0047326 102.6877 257.9616 14.55828254945375
Epoch (UTC): 19 September 2020 11:26:26
Eccentricity: 0.0047326
inclination: 98.4271°
perigee height: 673 km
apogee height: 740 km
right ascension of ascending node: 51.1643°
argument of perigee: 102.6877°
revolutions per day: 14.55828254
mean anomaly at epoch: 257.9616°
orbit number at epoch: 94537

The dashed part of the orbit path shows where the satellite is in the earth's shadow,  

DLR